Regional Weather Roundup
Issued by NWS

Home | Current Version | Previous Version | Graphics & Text | Print | Product List | Glossary Off
Versions: 1 2 3 4 5 6 7 8 9 10 11 12 13 14 15 16 17 18 19 20 21 22 23 24 25 26 27 28 29 30 31 32 33 34 35 36 37 38 39 40 41 42 43 44 45 46 47 48 49 50

000
ASUS43 KTOP 261708
RWRKS

WEATHER ROUNDUP FOR KANSAS
NATIONAL WEATHER SERVICE GOODLAND KS
1200 PM CDT THU MAY 26 2016

NOTE:  "FAIR" INDICATES FEW OR NO CLOUDS BELOW 12,000 FEET WITH NO
SIGNIFICANT WEATHER AND/OR OBSTRUCTIONS TO VISIBILITY.

KSZ001>006-013>018-027>032-041>047-261800-
NORTHWEST KANSAS

CITY           SKY/WX    TMP DP  RH WIND       PRES   REMARKS
GOODLAND       CLOUDY    68  52  56 E15       29.86F
HAYS           PTSUNNY   66  64  94 E10       29.76F
HILL CITY      CLOUDY    72  62  71 E10       29.82S
RUSSELL        CLOUDY    76  70  82 SE12      29.75F
$$

KSZ061>065-074>080-084>089-261800-
SOUTHWEST KANSAS

CITY           SKY/WX    TMP DP  RH WIND       PRES   REMARKS
DODGE CITY     MOSUNNY   75  60  59 SE16G22   29.77R
ELKHART          N/A     74  47  38 N5          N/A
GARDEN CITY      N/A     72  58  61 E13       29.76F
GREAT BEND     CLOUDY    77  64  65 S10       29.77R
LIBERAL        SUNNY     77  46  33 S17       29.81R
PRATT          TSTM      74  67  79 SW6       29.81S
$$

KSZ066>073-081>083-090>101-261800-
SOUTHEAST KANSAS

CITY           SKY/WX    TMP DP  RH WIND       PRES   REMARKS
CHANUTE        PTSUNNY   83  72  69 S23G29    29.85F
COFFEYVILLE    MOSUNNY   83  74  74 S15G25    29.87F
HUTCHINSON     CLOUDY    84  72  67 S13       29.77F
MEDICINE LODGE   N/A     85  69  58 S21       29.75F
NEWTON         CLOUDY    82  72  69 S17       29.83S
PARSONS        MOSUNNY   84  74  71 S15G25    29.87F
WICHITA INTL   PTSUNNY   84  73  69 S15G25    29.79S
WICHITA JABRA  PTSUNNY   83  73  72 S16       29.80R
WINFIELD       MOSUNNY   83  74  74 S14G26    29.81F
$$

KSZ007>012-019>026-033>040-048>060-102>105-261800-
NORTHEAST KANSAS

CITY           SKY/WX    TMP DP  RH WIND       PRES   REMARKS
CONCORDIA      CLOUDY    77  71  82 SE8       29.78F
EMPORIA        PTSUNNY   81  73  76 S20G25    29.81F
LAWRENCE       PTSUNNY   78  72  81 SE20      29.85F
MANHATTAN      PTSUNNY   82  73  74 SE10      29.79F
MARYSVILLE     CLOUDY    77  70  78 SE12      29.80F
OLATHE IND     CLOUDY    78  71  79 SE15      29.89R
OLATHE EXE     PTSUNNY   77  69  76 SE10      29.89S
SALINA         PTSUNNY   85  73  67 S15       29.78R
TOPEKA BILLARD PTSUNNY   76  71  85 SE16      29.84F
TOPEKA FORBES  CLOUDY    78  72  81 SE13      29.84S
$$



USA.gov is the U.S. government's official web portal to all federal, state and local government web resources and services.